Погода на Острове Командатуба

Бразилия     15°20′50″S   39°01′57″W
темп.,
°C
ветер,
м/с
пор.,
м/с
влажн.,
%
обл.,
%
осадки,
мм/ч
давл.,
гПа
погр.,
м
28 сентября, вт
вт2800:00+22в258816 0.1 1019354
03:00+22в368835 0.5 1017379
06:00+22в248761 0.2 1018325
09:00+25в24701 0.8 1020827
12:00+26в336212 0.1 10181054
15:00+26в336876 0.1 1016921
18:00+23в35784 0.0 1016322
21:00+23в25820 0.0 1018311
29 сентября, ср
ср2900:00+22св24841 0.0 1017314
03:00+21св02885 0.0 1015302
06:00+21зсз128940 0.3 1017110
09:00+26всв346819 0.9 1018988
12:00+27всв44605 0.1 10161012
15:00+26всв44630 0.1 1013917
18:00+23всв35800 0.0 1014282
21:00+22св35850 0.0 1016250
30 сентября, чт
чт3000:00+22с259018 0.0 1015357
03:00+22ссв258871 0.1 1013420
06:00+22ссв36888 0.3 1015438
09:00+27ссв45610 0.3 10161171
12:00+27св56620 0.0 10141024
15:00+27св56650 0.0 1011795
18:00+24св47834 0.0 1013529
21:00+23св37905 0.0 1015318
1 октября, пт
пт100:00+23ссв369116 0.0 1014340
03:00+22ссв369227 0.1 1013336
06:00+23ссв37915 0.3 1014366
09:00+27св456815 0.7 10161032
12:00+27св556715 0.1 10151130
15:00+26св56711 0.1 1012933
18:00+24св58840 0.0 1013652
21:00+24св48880 0.1 1015581
2 октября, сб
сб200:00+24ссв47873 0.1 1015515
03:00+22ссв379111 0.2 1014419
06:00+23ссв48916 0.4 1015410
09:00+27ссв57696 1.0 10161119
12:00+28св67640 0.1 10141241
15:00+27св67700 0.1 10121029
18:00+24ссв59851 0.0 1012711
21:00+24св49881 0.1 1014652